Nederland, TX

8:36 PM CST on February 24, 2017 (GMT -0600)
Southeast Texas Regional

Weather History for KBPT - September, 2013

Change the Weather History Date:

Thursday, September 12, 2013

  Actual Average Record
Temperature  
Mean Temperature 84 °F 80 °F  
Max Temperature 94 °F 89 °F 99 °F (1909)
Min Temperature 74 °F 71 °F 56 °F (1940)
Degree Days  
Heating Degree Days 0 0  
Month to date heating degree days 0 0  
Since 1 July heating degree days 0 0  
Cooling Degree Days 19 15  
Month to date cooling degree days 232 193  
Year to date cooling degree days 2422 2360  
Growing Degree Days 34 (Base 50)    
Moisture  
Dew Point 71 °F    
Average Humidity 67    
Maximum Humidity 94    
Minimum Humidity 39    
Precipitation  
Precipitation T in 0.22 in 3.31 in (2003)
Month to date precipitation 0.10 2.55  
Year to date precipitation 35.31 41.78  
Snow  
Snow 0.00 in 0.00 in 0.00 in ()
Month to date snowfall 0.0 0.0  
Since 1 July snowfall 0.0 0.0  
Since 1 September snowfall 0.0 0.0  
Snow Depth 0.00 in    
Sea Level Pressure  
Sea Level Pressure 29.98 in    
Wind  
Wind Speed 7 mph (ENE)    
Max Wind Speed 16 mph    
Max Gust Speed 25 mph    
Visibility 10 miles    
Events      
T = Trace of Precipitation, MM = Missing Value Source: NWS Daily Summary

Daily Weather History Graph

Daily Weather History Graph

Search for Another Location

Airport or City:

Trip Planner

Search our weather history database for the weather conditions in past years. The results will help you decide how hot, cold, wet, or windy it might be!

Date:

Astronomy

Sep. 12, 2013 Rise Set
Actual Time 6:59 AM CDT 7:24 PM CDT
Civil Twilight 6:35 AM CDT 7:48 PM CDT
Nautical Twilight 6:07 AM CDT 8:16 PM CDT
Astronomical Twilight 5:38 AM CDT 8:45 PM CDT
Moon 1:59 PM CDT (9/12) No Moon Set
Length of Visible Light 13h 13m
Length of Day
12h 25m
Waxing Crescent, 50% of the Moon is Illuminated
Sep 12
Waxing Crescent
Sep 12
First Quarter
Sep 19
Full
Sep 26
Last Quarter
Oct 4
New

Hourly Weather History & Observations

Time (CDT) Temp. Heat Index Dew Point Humidity Pressure Visibility Wind Dir Wind Speed Gust Speed Precip Events Conditions
12:53 AM 80.1 °F 84.5 °F 73.9 °F 81% 30.02 in 10.0 mi Calm Calm - N/A   Clear
1:53 AM 77.0 °F - 73.0 °F 88% 30.01 in 10.0 mi NE 3.5 mph - N/A   Clear
2:53 AM 78.1 °F - 75.0 °F 90% 30.01 in 10.0 mi Calm Calm - N/A   Clear
3:53 AM 79.0 °F - 75.0 °F 88% 30.01 in 10.0 mi NE 5.8 mph - N/A   Partly Cloudy
4:53 AM 78.1 °F - 75.0 °F 90% 30.01 in 10.0 mi NE 6.9 mph - N/A   Clear
5:53 AM 77.0 °F - 73.9 °F 90% 30.01 in 9.0 mi NE 6.9 mph - N/A   Clear
6:53 AM 75.9 °F - 73.0 °F 91% 30.01 in 9.0 mi NNE 3.5 mph - N/A   Clear
7:53 AM 78.1 °F - 73.0 °F 84% 30.02 in 9.0 mi NE 9.2 mph - N/A   Clear
8:53 AM 82.0 °F 86.7 °F 72.0 °F 71% 30.03 in 10.0 mi ENE 9.2 mph - N/A   Clear
9:53 AM 84.9 °F 89.4 °F 70.0 °F 61% 30.04 in 10.0 mi NE 11.5 mph - N/A   Clear
10:53 AM 89.1 °F 92.9 °F 68.0 °F 50% 30.04 in 10.0 mi NE 10.4 mph - N/A   Clear
11:53 AM 90.0 °F 92.8 °F 66.9 °F 46% 30.03 in 10.0 mi East 10.4 mph 19.6 mph N/A   Partly Cloudy
12:53 PM 91.0 °F 93.0 °F 64.9 °F 42% 30.01 in 10.0 mi NE 15.0 mph - N/A   Partly Cloudy
1:53 PM 91.9 °F 95.4 °F 66.9 °F 44% 29.99 in 10.0 mi ESE 16.1 mph 20.7 mph N/A   Partly Cloudy
2:53 PM 93.9 °F 97.5 °F 66.9 °F 41% 29.96 in 10.0 mi East 11.5 mph - N/A   Partly Cloudy
3:53 PM 93.0 °F 95.9 °F 66.0 °F 41% 29.94 in 10.0 mi ENE 8.1 mph 17.3 mph N/A   Mostly Cloudy
4:53 PM 93.9 °F 96.1 °F 64.9 °F 38% 29.92 in 10.0 mi East 8.1 mph - N/A   Clear
5:53 PM 90.0 °F 95.4 °F 70.0 °F 52% 29.91 in 10.0 mi SSE 10.4 mph - N/A   Clear
6:53 PM 86.0 °F 90.7 °F 70.0 °F 59% 29.91 in 10.0 mi South 6.9 mph - N/A   Clear
7:53 PM 80.1 °F 83.6 °F 71.1 °F 74% 29.92 in 10.0 mi SSW 4.6 mph - N/A   Partly Cloudy
8:53 PM 78.1 °F - 72.0 °F 81% 29.93 in 10.0 mi South 4.6 mph - N/A   Clear
9:53 PM 78.1 °F - 72.0 °F 81% 29.94 in 10.0 mi Calm Calm - N/A   Scattered Clouds
10:53 PM 75.9 °F - 72.0 °F 87% 29.94 in 10.0 mi Calm Calm - 0.00 in   Clear
11:53 PM 75.0 °F - 72.0 °F 90% 29.94 in 10.0 mi Calm Calm - N/A   Clear